Time,TemperatureF,DewpointF,PressureIn,WindDirection,WindDirectionDegrees,WindSpeedMPH,WindSpeedGustMPH,Humidity,HourlyPrecipIn,Conditions,Clouds,dailyrainin,SoftwareType,DateUTC
2013-05-19 00:01:00,76.2,73.7,29.88,ESE,111,0.0,0.0,92,0.00,,---,0.00,VWS V14.01,2013-05-19 05:01:00,
2013-05-19 00:06:00,76.1,73.6,29.88,ESE,104,0.0,0.0,92,0.00,,---,0.00,VWS V14.01,2013-05-19 05:06:00,
2013-05-19 00:11:00,76.1,73.6,29.89,ESE,104,0.0,0.0,92,0.00,,---,0.00,VWS V14.01,2013-05-19 05:11:00,
2013-05-19 00:16:00,76.0,73.5,29.89,ESE,106,0.0,0.0,92,0.00,,---,0.00,VWS V14.01,2013-05-19 05:16:00,
2013-05-19 00:21:00,76.0,73.5,29.89,East,101,0.0,0.0,92,0.00,,---,0.00,VWS V14.01,2013-05-19 05:21:00,
2013-05-19 00:26:00,76.0,73.5,29.89,SE,130,0.0,0.0,92,0.00,,---,0.00,VWS V14.01,2013-05-19 05:26:00,
2013-05-19 00:31:00,75.9,73.4,29.89,ESE,117,0.0,0.0,92,0.00,,---,0.00,VWS V14.01,2013-05-19 05:31:00,
2013-05-19 00:36:00,75.9,73.4,29.89,ESE,123,0.0,0.0,92,0.00,,---,0.00,VWS V14.01,2013-05-19 05:36:00,
2013-05-19 00:41:00,75.8,73.3,29.89,ESE,122,0.0,0.0,92,0.00,,---,0.00,VWS V14.01,2013-05-19 05:41:00,
2013-05-19 00:46:00,75.8,73.3,29.89,SE,144,0.0,0.0,92,0.00,,---,0.00,VWS V14.01,2013-05-19 05:46:00,
2013-05-19 00:51:00,75.8,73.3,29.89,SE,135,0.0,0.0,92,0.00,,---,0.00,VWS V14.01,2013-05-19 05:51:00,
2013-05-19 00:56:00,75.8,73.3,29.89,SSE,165,0.0,0.0,92,0.00,,---,0.00,VWS V14.01,2013-05-19 05:56:00,
2013-05-19 01:01:00,75.9,73.4,29.89,SSE,164,0.0,0.0,92,0.00,,---,0.00,VWS V14.01,2013-05-19 06:01:00,
2013-05-19 01:06:00,75.8,73.3,29.89,SSE,164,0.0,0.0,92,0.00,,---,0.00,VWS V14.01,2013-05-19 06:06:00,
2013-05-19 01:11:00,75.8,73.3,29.89,SSE,164,0.0,0.0,92,0.00,,---,0.00,VWS V14.01,2013-05-19 06:11:00,
2013-05-19 01:16:00,75.8,73.3,29.88,SSE,164,0.0,0.0,92,0.00,,---,0.00,VWS V14.01,2013-05-19 06:16:00,
2013-05-19 01:21:00,75.7,73.2,29.88,SE,140,0.0,0.0,92,0.00,,---,0.00,VWS V14.01,2013-05-19 06:21:00,
2013-05-19 01:26:00,75.7,73.2,29.88,SE,144,0.0,0.0,92,0.00,,---,0.00,VWS V14.01,2013-05-19 06:26:00,
2013-05-19 01:31:00,75.6,73.1,29.88,SE,144,0.0,0.0,92,0.00,,---,0.00,VWS V14.01,2013-05-19 06:31:00,
2013-05-19 01:36:00,75.6,73.1,29.88,SE,124,0.0,0.0,92,0.00,,---,0.00,VWS V14.01,2013-05-19 06:36:00,
2013-05-19 01:41:00,75.5,73.0,29.88,SE,130,0.0,0.0,92,0.00,,---,0.00,VWS V14.01,2013-05-19 06:41:00,
2013-05-19 01:46:00,75.5,73.0,29.88,SE,133,0.0,0.0,92,0.00,,---,0.00,VWS V14.01,2013-05-19 06:46:00,
2013-05-19 01:51:00,75.4,72.9,29.88,SSE,163,0.0,0.0,92,0.00,,---,0.00,VWS V14.01,2013-05-19 06:51:00,
2013-05-19 01:56:00,75.3,72.8,29.88,SE,144,0.0,0.0,92,0.00,,---,0.00,VWS V14.01,2013-05-19 06:56:00,
2013-05-19 02:01:00,75.3,72.8,29.87,SE,140,0.0,0.0,92,0.00,,---,0.00,VWS V14.01,2013-05-19 07:01:00,
2013-05-19 02:06:00,75.3,72.8,29.87,SE,139,0.0,0.0,92,0.00,,---,0.00,VWS V14.01,2013-05-19 07:06:00,
2013-05-19 02:11:00,75.3,72.8,29.87,ESE,106,0.0,0.0,92,0.00,,---,0.00,VWS V14.01,2013-05-19 07:11:00,
2013-05-19 02:16:00,75.3,72.5,29.87,SE,144,0.0,0.0,91,0.00,,---,0.00,VWS V14.01,2013-05-19 07:16:00,
2013-05-19 02:21:00,75.3,72.5,29.87,SE,131,0.0,0.0,91,0.00,,---,0.00,VWS V14.01,2013-05-19 07:21:00,
2013-05-19 02:26:00,75.3,72.5,29.88,SE,127,0.0,0.0,91,0.00,,---,0.00,VWS V14.01,2013-05-19 07:26:00,
2013-05-19 02:31:00,75.3,72.5,29.88,SE,137,0.0,0.0,91,0.00,,---,0.00,VWS V14.01,2013-05-19 07:31:00,
2013-05-19 02:36:00,75.2,72.4,29.88,SE,141,0.0,0.0,91,0.00,,---,0.00,VWS V14.01,2013-05-19 07:36:00,
2013-05-19 02:41:00,75.2,72.4,29.88,SE,141,0.0,0.0,91,0.00,,---,0.00,VWS V14.01,2013-05-19 07:41:00,
2013-05-19 02:46:00,75.1,72.3,29.88,SE,141,0.0,0.0,91,0.00,,---,0.00,VWS V14.01,2013-05-19 07:46:00,
2013-05-19 02:51:00,75.1,72.3,29.88,SE,141,0.0,0.0,91,0.00,,---,0.00,VWS V14.01,2013-05-19 07:51:00,
2013-05-19 02:56:00,75.0,72.2,29.88,SE,141,0.0,0.0,91,0.00,,---,0.00,VWS V14.01,2013-05-19 07:56:00,
2013-05-19 03:01:00,74.9,72.1,29.88,SSE,149,0.0,0.0,91,0.00,,---,0.00,VWS V14.01,2013-05-19 08:01:00,
2013-05-19 03:06:00,74.9,72.1,29.88,SSE,149,0.0,0.0,91,0.00,,---,0.00,VWS V14.01,2013-05-19 08:06:00,
2013-05-19 03:11:00,74.9,72.1,29.88,SSE,149,0.0,0.0,91,0.00,,---,0.00,VWS V14.01,2013-05-19 08:11:00,
2013-05-19 03:16:00,74.9,72.1,29.88,SSE,149,0.0,0.0,91,0.00,,---,0.00,VWS V14.01,2013-05-19 08:16:00,
2013-05-19 03:21:00,74.9,72.1,29.88,SSE,149,0.0,0.0,91,0.00,,---,0.00,VWS V14.01,2013-05-19 08:21:00,
2013-05-19 03:26:00,74.9,72.1,29.88,SSE,147,0.0,0.0,91,0.00,,---,0.00,VWS V14.01,2013-05-19 08:26:00,
2013-05-19 03:31:00,75.1,72.0,29.88,South,187,0.0,0.0,90,0.00,,---,0.00,VWS V14.01,2013-05-19 08:31:00,
2013-05-19 03:36:00,75.2,71.7,29.88,SSE,156,0.0,0.0,89,0.00,,---,0.00,VWS V14.01,2013-05-19 08:36:00,
2013-05-19 03:41:00,75.4,71.9,29.88,SE,141,0.0,0.0,89,0.00,,---,0.00,VWS V14.01,2013-05-19 08:41:00,
2013-05-19 03:46:00,75.5,71.7,29.88,SE,141,0.0,0.0,88,0.00,,---,0.00,VWS V14.01,2013-05-19 08:46:00,
2013-05-19 03:51:00,75.7,71.9,29.89,SSE,153,0.0,0.0,88,0.00,,---,0.00,VWS V14.01,2013-05-19 08:51:00,
2013-05-19 03:56:00,75.8,72.0,29.89,SSE,157,0.0,0.0,88,0.00,,---,0.00,VWS V14.01,2013-05-19 08:56:00,
2013-05-19 04:01:00,75.8,71.7,29.89,South,173,0.0,0.0,87,0.00,,---,0.00,VWS V14.01,2013-05-19 09:01:00,
2013-05-19 04:06:00,76.0,71.9,29.89,SSE,168,0.0,0.0,87,0.00,,---,0.00,VWS V14.01,2013-05-19 09:06:00,
2013-05-19 04:11:00,76.0,71.5,29.89,South,189,0.0,0.0,86,0.00,,---,0.00,VWS V14.01,2013-05-19 09:11:00,
2013-05-19 04:16:00,75.9,71.4,29.89,SSE,148,0.0,0.0,86,0.00,,---,0.00,VWS V14.01,2013-05-19 09:16:00,
2013-05-19 04:21:00,75.9,71.4,29.89,South,175,0.0,0.0,86,0.00,,---,0.00,VWS V14.01,2013-05-19 09:21:00,
2013-05-19 04:26:00,75.9,71.4,29.89,SSE,159,0.0,0.0,86,0.00,,---,0.00,VWS V14.01,2013-05-19 09:26:00,
2013-05-19 04:31:00,75.9,71.4,29.89,SSE,167,0.0,0.0,86,0.00,,---,0.00,VWS V14.01,2013-05-19 09:31:00,
2013-05-19 04:36:00,75.8,71.3,29.88,South,171,0.0,0.0,86,0.00,,---,0.00,VWS V14.01,2013-05-19 09:36:00,
2013-05-19 04:41:00,75.8,71.3,29.89,SSE,152,0.0,0.0,86,0.00,,---,0.00,VWS V14.01,2013-05-19 09:41:00,
2013-05-19 04:46:00,75.7,71.2,29.89,South,171,0.0,0.0,86,0.00,,---,0.00,VWS V14.01,2013-05-19 09:46:00,
2013-05-19 04:51:00,75.6,71.5,29.89,SE,144,0.0,0.0,87,0.00,,---,0.00,VWS V14.01,2013-05-19 09:51:00,
2013-05-19 04:56:00,75.5,71.4,29.88,SE,134,0.0,0.0,87,0.00,,---,0.00,VWS V14.01,2013-05-19 09:56:00,
2013-05-19 05:01:00,75.3,71.2,29.89,SSE,148,0.0,0.0,87,0.00,,---,0.00,VWS V14.01,2013-05-19 10:01:00,
2013-05-19 05:06:00,75.3,71.2,29.89,SSE,150,0.0,0.0,87,0.00,,---,0.00,VWS V14.01,2013-05-19 10:06:00,
2013-05-19 05:11:00,75.1,71.0,29.89,SSE,159,0.0,0.0,87,0.00,,---,0.00,VWS V14.01,2013-05-19 10:11:00,
2013-05-19 05:16:00,75.0,70.9,29.89,SSE,158,0.0,0.0,87,0.00,,---,0.00,VWS V14.01,2013-05-19 10:16:00,
2013-05-19 05:21:00,74.9,71.1,29.88,SSE,151,0.0,0.0,88,0.00,,---,0.00,VWS V14.01,2013-05-19 10:21:00,
2013-05-19 05:26:00,74.8,71.0,29.88,SSE,159,0.0,0.0,88,0.00,,---,0.00,VWS V14.01,2013-05-19 10:26:00,
2013-05-19 05:31:00,74.7,70.9,29.88,South,169,0.0,0.0,88,0.00,,---,0.00,VWS V14.01,2013-05-19 10:31:00,
2013-05-19 05:36:00,74.6,70.8,29.88,South,178,0.0,0.0,88,0.00,,---,0.00,VWS V14.01,2013-05-19 10:36:00,
2013-05-19 05:41:00,74.4,70.6,29.88,SSE,167,0.0,0.0,88,0.00,,---,0.00,VWS V14.01,2013-05-19 10:41:00,
2013-05-19 05:46:00,74.3,70.8,29.88,SE,146,0.0,0.0,89,0.00,,---,0.00,VWS V14.01,2013-05-19 10:46:00,
2013-05-19 05:51:00,74.2,70.8,29.88,South,184,0.0,0.0,89,0.00,,---,0.00,VWS V14.01,2013-05-19 10:51:00,
2013-05-19 05:56:00,74.1,70.7,29.88,SSE,163,0.0,0.0,89,0.00,,---,0.00,VWS V14.01,2013-05-19 10:56:00,
2013-05-19 06:01:00,74.1,70.7,29.89,SSE,160,0.0,0.0,89,0.00,,---,0.00,VWS V14.01,2013-05-19 11:01:00,
2013-05-19 06:06:00,74.2,70.8,29.89,SSE,158,0.0,0.0,89,0.00,,---,0.00,VWS V14.01,2013-05-19 11:06:00,
2013-05-19 06:11:00,74.1,70.7,29.89,SSE,157,0.0,0.0,89,0.00,,---,0.00,VWS V14.01,2013-05-19 11:11:00,
2013-05-19 06:16:00,74.1,70.7,29.89,South,175,0.0,0.0,89,0.00,,---,0.00,VWS V14.01,2013-05-19 11:16:00,
2013-05-19 06:21:00,74.1,70.7,29.90,South,176,0.0,0.0,89,0.00,,---,0.00,VWS V14.01,2013-05-19 11:21:00,
2013-05-19 06:26:00,74.0,70.6,29.90,South,185,0.0,0.0,89,0.00,,---,0.00,VWS V14.01,2013-05-19 11:26:00,
2013-05-19 06:31:00,74.0,70.6,29.90,South,171,0.0,0.0,89,0.00,,---,0.00,VWS V14.01,2013-05-19 11:31:00,
2013-05-19 06:36:00,73.9,70.5,29.90,SSE,150,0.0,0.0,89,0.00,,---,0.00,VWS V14.01,2013-05-19 11:36:00,
2013-05-19 06:41:00,73.9,70.5,29.90,South,169,0.0,0.0,89,0.00,,---,0.00,VWS V14.01,2013-05-19 11:41:00,
2013-05-19 06:46:00,74.0,70.9,29.90,SE,146,0.0,0.0,90,0.00,,---,0.00,VWS V14.01,2013-05-19 11:46:00,
2013-05-19 06:51:00,74.1,71.0,29.90,SE,136,0.0,0.0,90,0.00,,---,0.00,VWS V14.01,2013-05-19 11:51:00,
2013-05-19 06:56:00,74.2,70.8,29.90,SE,146,0.0,0.0,89,0.00,,---,0.00,VWS V14.01,2013-05-19 11:56:00,
2013-05-19 07:01:00,74.4,70.9,29.90,SSE,159,0.0,0.0,89,0.00,,---,0.00,VWS V14.01,2013-05-19 12:01:00,
2013-05-19 07:06:00,74.6,71.2,29.90,SSE,157,0.0,0.0,89,0.00,,---,0.00,VWS V14.01,2013-05-19 12:06:00,
2013-05-19 07:11:00,74.8,71.3,29.90,South,171,0.0,0.0,89,0.00,,---,0.00,VWS V14.01,2013-05-19 12:11:00,
2013-05-19 07:16:00,75.0,71.2,29.90,South,183,0.0,0.0,88,0.00,,---,0.00,VWS V14.01,2013-05-19 12:16:00,
2013-05-19 07:21:00,75.3,71.2,29.90,South,175,0.0,0.0,87,0.00,,---,0.00,VWS V14.01,2013-05-19 12:21:00,
2013-05-19 07:26:00,75.7,71.9,29.91,SSE,150,0.0,0.0,88,0.00,,---,0.00,VWS V14.01,2013-05-19 12:26:00,
2013-05-19 07:31:00,75.9,71.4,29.91,South,173,0.0,0.0,86,0.00,,---,0.00,VWS V14.01,2013-05-19 12:31:00,
2013-05-19 07:36:00,76.2,71.7,29.91,SSE,167,0.0,0.0,86,0.00,,---,0.00,VWS V14.01,2013-05-19 12:36:00,
2013-05-19 07:41:00,76.4,71.9,29.91,SSE,163,0.0,0.0,86,0.00,,---,0.00,VWS V14.01,2013-05-19 12:41:00,
2013-05-19 07:46:00,76.6,71.8,29.91,SSE,166,0.0,0.0,85,0.00,,---,0.00,VWS V14.01,2013-05-19 12:46:00,
2013-05-19 07:51:00,76.8,71.9,29.91,SSE,159,0.0,0.0,85,0.00,,---,0.00,VWS V14.01,2013-05-19 12:51:00,
2013-05-19 07:56:00,77.0,71.8,29.91,SSE,167,0.0,0.0,84,0.00,,---,0.00,VWS V14.01,2013-05-19 12:56:00,
2013-05-19 08:01:00,77.3,72.1,29.91,South,188,0.0,0.0,84,0.00,,---,0.00,VWS V14.01,2013-05-19 13:01:00,
2013-05-19 08:06:00,77.8,72.2,29.91,SSE,147,0.0,0.0,83,0.00,,---,0.00,VWS V14.01,2013-05-19 13:06:00,
2013-05-19 08:11:00,78.2,71.9,29.92,SSE,165,0.0,0.0,81,0.00,,---,0.00,VWS V14.01,2013-05-19 13:11:00,
2013-05-19 08:16:00,78.3,72.4,29.92,South,171,0.0,0.0,82,0.00,,---,0.00,VWS V14.01,2013-05-19 13:16:00,
2013-05-19 08:21:00,78.5,72.2,29.92,SW,220,0.0,0.0,81,0.00,,---,0.00,VWS V14.01,2013-05-19 13:21:00,
2013-05-19 08:26:00,78.8,72.1,29.93,SSE,162,0.0,0.0,80,0.00,,---,0.00,VWS V14.01,2013-05-19 13:26:00,
2013-05-19 08:31:00,79.1,71.7,29.93,SSE,151,0.0,0.0,78,0.00,,---,0.00,VWS V14.01,2013-05-19 13:31:00,
2013-05-19 08:36:00,79.4,71.9,29.93,South,183,0.0,0.0,78,0.00,,---,0.00,VWS V14.01,2013-05-19 13:36:00,
2013-05-19 08:41:00,79.8,71.6,29.93,South,172,0.0,0.0,76,0.00,,---,0.00,VWS V14.01,2013-05-19 13:41:00,
2013-05-19 08:46:00,79.9,70.9,29.94,South,175,0.0,0.0,74,0.00,,---,0.00,VWS V14.01,2013-05-19 13:46:00,
2013-05-19 08:51:00,80.0,70.6,29.94,SSE,150,0.0,0.0,73,0.00,,---,0.00,VWS V14.01,2013-05-19 13:51:00,
2013-05-19 08:56:00,79.8,70.4,29.94,South,182,0.0,0.0,73,0.00,,---,0.00,VWS V14.01,2013-05-19 13:56:00,
2013-05-19 09:01:00,80.1,71.9,29.94,SSW,199,0.0,0.0,76,0.00,,---,0.00,VWS V14.01,2013-05-19 14:01:00,
2013-05-19 09:06:00,80.3,70.1,29.94,SSW,195,0.0,0.0,71,0.00,,---,0.00,VWS V14.01,2013-05-19 14:06:00,
2013-05-19 09:11:00,80.4,70.1,29.94,SSE,161,0.0,0.0,71,0.00,,---,0.00,VWS V14.01,2013-05-19 14:11:00,
2013-05-19 09:16:00,80.6,70.8,29.94,SSE,167,0.0,0.0,72,0.00,,---,0.00,VWS V14.01,2013-05-19 14:16:00,
2013-05-19 09:21:00,80.9,70.2,29.93,SSW,198,0.0,0.0,70,0.00,,---,0.00,VWS V14.01,2013-05-19 14:21:00,
2013-05-19 09:26:00,81.1,70.4,29.94,South,175,0.0,0.0,70,0.00,,---,0.00,VWS V14.01,2013-05-19 14:26:00,
2013-05-19 09:31:00,81.4,69.8,29.94,SW,214,0.0,0.0,68,0.00,,---,0.00,VWS V14.01,2013-05-19 14:31:00,
2013-05-19 09:36:00,81.6,70.0,29.94,South,169,0.0,0.0,68,0.00,,---,0.00,VWS V14.01,2013-05-19 14:36:00,
2013-05-19 09:41:00,81.9,69.9,29.94,SSE,164,0.0,0.0,67,0.00,,---,0.00,VWS V14.01,2013-05-19 14:41:00,
2013-05-19 09:46:00,82.1,69.2,29.94,SSW,209,0.0,0.0,65,0.00,,---,0.00,VWS V14.01,2013-05-19 14:46:00,
2013-05-19 09:51:00,82.1,69.6,29.94,SSW,198,0.0,0.0,66,0.00,,---,0.00,VWS V14.01,2013-05-19 14:51:00,
2013-05-19 09:56:00,82.5,70.0,29.94,SSE,160,0.0,0.0,66,0.00,,---,0.00,VWS V14.01,2013-05-19 14:56:00,
2013-05-19 10:01:00,82.8,69.4,29.94,SSW,192,0.0,0.0,64,0.00,,---,0.00,VWS V14.01,2013-05-19 15:01:00,
2013-05-19 10:06:00,82.7,69.3,29.94,SSE,153,0.0,0.0,64,0.00,,---,0.00,VWS V14.01,2013-05-19 15:06:00,
2013-05-19 10:11:00,82.6,68.7,29.94,South,182,0.0,0.0,63,0.00,,---,0.00,VWS V14.01,2013-05-19 15:11:00,
2013-05-19 10:16:00,82.8,69.8,29.94,SSE,160,0.0,0.0,65,0.00,,---,0.00,VWS V14.01,2013-05-19 15:16:00,
2013-05-19 10:21:00,82.9,68.1,29.94,SSE,158,0.0,0.0,61,0.00,,---,0.00,VWS V14.01,2013-05-19 15:21:00,
2013-05-19 10:26:00,83.1,69.2,29.93,SSE,163,0.0,0.0,63,0.00,,---,0.00,VWS V14.01,2013-05-19 15:26:00,
2013-05-19 10:31:00,83.8,69.4,29.93,SSE,153,0.0,0.0,62,0.00,,---,0.00,VWS V14.01,2013-05-19 15:31:00,
2013-05-19 10:36:00,83.9,69.5,29.93,South,179,0.0,0.0,62,0.00,,---,0.00,VWS V14.01,2013-05-19 15:36:00,
2013-05-19 10:41:00,84.3,70.3,29.93,SSW,198,0.0,0.0,63,0.00,,---,0.00,VWS V14.01,2013-05-19 15:41:00,
2013-05-19 10:46:00,84.9,67.5,29.93,SE,140,0.0,0.0,56,0.00,,---,0.00,VWS V14.01,2013-05-19 15:46:00,
2013-05-19 10:51:00,84.7,67.3,29.93,SSE,162,0.0,0.0,56,0.00,,---,0.00,VWS V14.01,2013-05-19 15:51:00,
2013-05-19 10:56:00,84.8,68.4,29.93,SSE,154,0.0,0.0,58,0.00,,---,0.00,VWS V14.01,2013-05-19 15:56:00,
2013-05-19 11:01:00,85.1,69.7,29.93,SSW,208,0.0,0.0,60,0.00,,---,0.00,VWS V14.01,2013-05-19 16:01:00,
2013-05-19 11:06:00,85.6,69.6,29.93,SSE,150,0.0,0.0,59,0.00,,---,0.00,VWS V14.01,2013-05-19 16:06:00,
2013-05-19 11:11:00,85.4,67.4,29.93,SSE,155,0.0,0.0,55,0.00,,---,0.00,VWS V14.01,2013-05-19 16:11:00,
2013-05-19 11:16:00,85.0,66.5,29.93,SSE,159,0.0,0.0,54,0.00,,---,0.00,VWS V14.01,2013-05-19 16:16:00,
2013-05-19 11:21:00,85.0,66.5,29.93,SSE,165,0.0,0.0,54,0.00,,---,0.00,VWS V14.01,2013-05-19 16:21:00,
2013-05-19 11:26:00,85.0,67.0,29.92,SSW,193,0.0,0.0,55,0.00,,---,0.00,VWS V14.01,2013-05-19 16:26:00,
2013-05-19 11:31:00,85.2,68.3,29.92,SE,138,0.0,0.0,57,0.00,,---,0.00,VWS V14.01,2013-05-19 16:31:00,
2013-05-19 11:36:00,85.5,66.4,29.93,South,173,0.0,0.0,53,0.00,,---,0.00,VWS V14.01,2013-05-19 16:36:00,
2013-05-19 11:41:00,85.2,66.7,29.92,SSW,203,0.0,0.0,54,0.00,,---,0.00,VWS V14.01,2013-05-19 16:41:00,
2013-05-19 11:46:00,84.8,66.8,29.93,SE,135,0.0,0.0,55,0.00,,---,0.00,VWS V14.01,2013-05-19 16:46:00,
2013-05-19 11:51:00,84.3,66.4,29.92,SSE,163,0.0,0.0,55,0.00,,---,0.00,VWS V14.01,2013-05-19 16:51:00,
2013-05-19 11:56:00,84.1,67.2,29.92,South,186,0.0,0.0,57,0.00,,---,0.00,VWS V14.01,2013-05-19 16:56:00,
2013-05-19 12:00:00,84.7,68.8,29.92,SSE,159,0.0,0.0,59,0.00,,---,0.00,VWS V14.01,2013-05-19 17:00:00,
2013-05-19 12:05:00,85.2,68.3,29.92,ESE,123,0.0,0.0,57,0.00,,---,0.00,VWS V14.01,2013-05-19 17:05:00,
2013-05-19 12:10:00,85.4,66.3,29.92,South,182,0.0,0.0,53,0.00,,---,0.00,VWS V14.01,2013-05-19 17:10:00,
2013-05-19 12:15:00,85.7,68.2,29.91,SE,134,0.0,0.0,56,0.00,,---,0.00,VWS V14.01,2013-05-19 17:15:00,
2013-05-19 12:20:00,85.9,66.2,29.92,SSE,155,0.0,0.0,52,0.00,,---,0.00,VWS V14.01,2013-05-19 17:20:00,
2013-05-19 12:25:00,85.7,65.5,29.91,SSW,207,0.0,0.0,51,0.00,,---,0.00,VWS V14.01,2013-05-19 17:25:00,
2013-05-19 12:30:00,86.2,67.1,29.91,South,180,0.0,0.0,53,0.00,,---,0.00,VWS V14.01,2013-05-19 17:30:00,
2013-05-19 12:35:00,86.6,66.3,29.91,SSW,193,0.0,0.0,51,0.00,,---,0.00,VWS V14.01,2013-05-19 17:35:00,
2013-05-19 12:40:00,86.9,68.8,29.91,SE,138,0.0,0.0,55,0.00,,---,0.00,VWS V14.01,2013-05-19 17:40:00,
2013-05-19 12:45:00,87.0,68.9,29.91,South,174,0.0,0.0,55,0.00,,---,0.00,VWS V14.01,2013-05-19 17:45:00,
2013-05-19 12:50:00,87.0,67.8,29.90,SSE,157,0.0,0.0,53,0.00,,---,0.00,VWS V14.01,2013-05-19 17:50:00,
2013-05-19 12:55:00,87.3,69.2,29.90,SE,136,0.0,0.0,55,0.00,,---,0.00,VWS V14.01,2013-05-19 17:55:00,
2013-05-19 13:00:00,87.3,67.5,29.90,SSE,156,0.0,0.0,52,0.00,,---,0.00,VWS V14.01,2013-05-19 18:00:00,
2013-05-19 13:05:00,87.2,66.3,29.89,SSE,148,0.0,0.0,50,0.00,,---,0.00,VWS V14.01,2013-05-19 18:05:00,
2013-05-19 13:10:00,87.1,67.4,29.89,SE,138,0.0,0.0,52,0.00,,---,0.00,VWS V14.01,2013-05-19 18:10:00,
2013-05-19 13:15:00,87.0,69.4,29.89,ESE,111,0.0,0.0,56,0.00,,---,0.00,VWS V14.01,2013-05-19 18:15:00,
2013-05-19 13:20:00,87.2,69.1,29.88,SSE,157,0.0,0.0,55,0.00,,---,0.00,VWS V14.01,2013-05-19 18:20:00,
2013-05-19 13:25:00,87.5,67.7,29.89,SSE,161,0.0,0.0,52,0.00,,---,0.00,VWS V14.01,2013-05-19 18:25:00,
2013-05-19 13:30:00,87.4,68.2,29.89,SE,145,0.0,0.0,53,0.00,,---,0.00,VWS V14.01,2013-05-19 18:30:00,
2013-05-19 13:35:00,87.1,67.9,29.89,SSE,160,0.0,0.0,53,0.00,,---,0.00,VWS V14.01,2013-05-19 18:35:00,
2013-05-19 13:40:00,87.3,68.6,29.88,ESE,112,0.0,0.0,54,0.00,,---,0.00,VWS V14.01,2013-05-19 18:40:00,
2013-05-19 13:45:00,87.5,67.7,29.88,SE,142,0.0,0.0,52,0.00,,---,0.00,VWS V14.01,2013-05-19 18:45:00,
2013-05-19 13:50:00,87.6,67.2,29.88,ESE,115,0.0,0.0,51,0.00,,---,0.00,VWS V14.01,2013-05-19 18:50:00,
2013-05-19 13:55:00,87.6,69.4,29.88,ESE,116,0.0,0.0,55,0.00,,---,0.00,VWS V14.01,2013-05-19 18:55:00,
2013-05-19 14:00:00,87.7,69.0,29.87,South,175,0.0,0.0,54,0.00,,---,0.00,VWS V14.01,2013-05-19 19:00:00,
2013-05-19 14:05:00,87.7,67.3,29.87,ESE,119,0.0,0.0,51,0.00,,---,0.00,VWS V14.01,2013-05-19 19:05:00,
2013-05-19 14:10:00,88.0,68.7,29.87,ESE,117,0.0,0.0,53,0.00,,---,0.00,VWS V14.01,2013-05-19 19:10:00,
2013-05-19 14:15:00,88.1,69.4,29.87,ESE,104,0.0,0.0,54,0.00,,---,0.00,VWS V14.01,2013-05-19 19:15:00,
2013-05-19 14:20:00,88.7,69.4,29.87,SSE,159,0.0,0.0,53,0.00,,---,0.00,VWS V14.01,2013-05-19 19:20:00,
2013-05-19 14:25:00,89.0,69.7,29.87,SSE,154,0.0,0.0,53,0.00,,---,0.00,VWS V14.01,2013-05-19 19:25:00,
2013-05-19 14:30:00,89.2,68.7,29.86,ESE,107,0.0,0.0,51,0.00,,---,0.00,VWS V14.01,2013-05-19 19:30:00,
2013-05-19 14:35:00,89.1,68.1,29.86,SSE,152,0.0,0.0,50,0.00,,---,0.00,VWS V14.01,2013-05-19 19:35:00,
2013-05-19 14:40:00,89.0,69.7,29.86,SE,139,0.0,0.0,53,0.00,,---,0.00,VWS V14.01,2013-05-19 19:40:00,
2013-05-19 14:45:00,88.8,67.8,29.86,SE,142,0.0,0.0,50,0.00,,---,0.00,VWS V14.01,2013-05-19 19:45:00,
2013-05-19 14:50:00,89.1,67.5,29.86,South,185,0.0,0.0,49,0.00,,---,0.00,VWS V14.01,2013-05-19 19:50:00,
2013-05-19 14:55:00,89.3,68.8,29.86,SSE,154,0.0,0.0,51,0.00,,---,0.00,VWS V14.01,2013-05-19 19:55:00,
2013-05-19 15:00:00,89.4,69.5,29.86,SSE,155,0.0,0.0,52,0.00,,---,0.00,VWS V14.01,2013-05-19 20:00:00,
2013-05-19 15:05:00,89.2,69.8,29.86,ESE,113,0.0,0.0,53,0.00,,---,0.00,VWS V14.01,2013-05-19 20:05:00,
2013-05-19 15:10:00,89.1,69.8,29.86,South,175,0.0,0.0,53,0.00,,---,0.00,VWS V14.01,2013-05-19 20:10:00,
2013-05-19 15:15:00,89.0,68.0,29.86,South,170,0.0,0.0,50,0.00,,---,0.00,VWS V14.01,2013-05-19 20:15:00,
2013-05-19 15:20:00,88.9,68.4,29.86,SSE,151,0.0,0.0,51,0.00,,---,0.00,VWS V14.01,2013-05-19 20:20:00,
2013-05-19 15:25:00,88.9,69.0,29.86,SSE,165,0.0,0.0,52,0.00,,---,0.00,VWS V14.01,2013-05-19 20:25:00,
2013-05-19 15:30:00,88.7,67.1,29.86,South,186,0.0,0.0,49,0.00,,---,0.00,VWS V14.01,2013-05-19 20:30:00,
2013-05-19 15:35:00,88.5,68.1,29.86,SSE,166,0.0,0.0,51,0.00,,---,0.00,VWS V14.01,2013-05-19 20:35:00,
2013-05-19 15:40:00,88.6,68.2,29.86,ESE,123,0.0,0.0,51,0.00,,---,0.00,VWS V14.01,2013-05-19 20:40:00,
2013-05-19 15:45:00,88.6,68.2,29.86,SSE,148,0.0,0.0,51,0.00,,---,0.00,VWS V14.01,2013-05-19 20:45:00,
2013-05-19 15:50:00,89.0,68.5,29.85,SSE,148,0.0,0.0,51,0.00,,---,0.00,VWS V14.01,2013-05-19 20:50:00,
2013-05-19 15:55:00,89.2,70.4,29.85,SSE,159,0.0,0.0,54,0.00,,---,0.00,VWS V14.01,2013-05-19 20:55:00,
2013-05-19 16:00:00,89.2,69.8,29.85,SE,144,0.0,0.0,53,0.00,,---,0.00,VWS V14.01,2013-05-19 21:00:00,
2013-05-19 16:05:00,89.2,70.9,29.85,South,178,0.0,0.0,55,0.00,,---,0.00,VWS V14.01,2013-05-19 21:05:00,
2013-05-19 16:10:00,89.4,71.1,29.85,South,169,0.0,0.0,55,0.00,,---,0.00,VWS V14.01,2013-05-19 21:10:00,
2013-05-19 16:15:00,89.5,69.6,29.85,SE,141,0.0,0.0,52,0.00,,---,0.00,VWS V14.01,2013-05-19 21:15:00,
2013-05-19 16:20:00,89.4,69.5,29.85,SSE,164,0.0,0.0,52,0.00,,---,0.00,VWS V14.01,2013-05-19 21:20:00,
2013-05-19 16:25:00,89.3,71.0,29.85,SE,133,0.0,0.0,55,0.00,,---,0.00,VWS V14.01,2013-05-19 21:25:00,
2013-05-19 16:30:00,89.0,70.2,29.85,SE,143,0.0,0.0,54,0.00,,---,0.00,VWS V14.01,2013-05-19 21:30:00,
2013-05-19 16:35:00,89.1,70.8,29.85,ESE,115,0.0,0.0,55,0.00,,---,0.00,VWS V14.01,2013-05-19 21:35:00,
2013-05-19 16:40:00,89.0,69.7,29.85,SE,132,0.0,0.0,53,0.00,,---,0.00,VWS V14.01,2013-05-19 21:40:00,
2013-05-19 16:45:00,88.7,68.8,29.85,SE,146,0.0,0.0,52,0.00,,---,0.00,VWS V14.01,2013-05-19 21:45:00,
2013-05-19 16:50:00,88.3,69.0,29.85,SE,139,0.0,0.0,53,0.00,,---,0.00,VWS V14.01,2013-05-19 21:50:00,
2013-05-19 16:55:00,88.1,69.4,29.85,SE,126,0.0,0.0,54,0.00,,---,0.00,VWS V14.01,2013-05-19 21:55:00,
2013-05-19 17:00:00,88.2,69.5,29.84,SE,146,0.0,0.0,54,0.00,,---,0.00,VWS V14.01,2013-05-19 22:00:00,
2013-05-19 17:05:00,88.4,69.7,29.84,South,175,0.0,0.0,54,0.00,,---,0.00,VWS V14.01,2013-05-19 22:05:00,
2013-05-19 17:10:00,88.6,69.3,29.84,ESE,117,0.0,0.0,53,0.00,,---,0.00,VWS V14.01,2013-05-19 22:10:00,
2013-05-19 17:15:00,88.3,69.6,29.84,SE,139,0.0,0.0,54,0.00,,---,0.00,VWS V14.01,2013-05-19 22:15:00,
2013-05-19 17:20:00,88.2,69.5,29.84,SSE,150,0.0,0.0,54,0.00,,---,0.00,VWS V14.01,2013-05-19 22:20:00,
2013-05-19 17:25:00,87.7,68.5,29.84,SE,144,0.0,0.0,53,0.00,,---,0.00,VWS V14.01,2013-05-19 22:25:00,
2013-05-19 17:30:00,87.3,68.1,29.84,SSE,165,0.0,0.0,53,0.00,,---,0.00,VWS V14.01,2013-05-19 22:30:00,
2013-05-19 17:35:00,87.0,68.4,29.84,SSE,162,0.0,0.0,54,0.00,,---,0.00,VWS V14.01,2013-05-19 22:35:00,
2013-05-19 17:40:00,86.8,68.7,29.84,SE,140,0.0,0.0,55,0.00,,---,0.00,VWS V14.01,2013-05-19 22:40:00,
2013-05-19 17:45:00,86.5,69.0,29.84,ESE,113,0.0,0.0,56,0.00,,---,0.00,VWS V14.01,2013-05-19 22:45:00,
2013-05-19 17:50:00,86.5,70.0,29.84,SE,129,0.0,0.0,58,0.00,,---,0.00,VWS V14.01,2013-05-19 22:50:00,
2013-05-19 17:55:00,86.6,70.6,29.83,SSE,167,0.0,0.0,59,0.00,,---,0.00,VWS V14.01,2013-05-19 22:55:00,
2013-05-19 18:00:00,86.9,70.4,29.83,SSE,149,0.0,0.0,58,0.00,,---,0.00,VWS V14.01,2013-05-19 23:00:00,
2013-05-19 18:05:00,86.7,69.7,29.83,SSE,165,0.0,0.0,57,0.00,,---,0.00,VWS V14.01,2013-05-19 23:05:00,
2013-05-19 18:10:00,86.5,69.5,29.83,South,180,0.0,0.0,57,0.00,,---,0.00,VWS V14.01,2013-05-19 23:10:00,
2013-05-19 18:15:00,86.4,70.4,29.83,ESE,109,0.0,0.0,59,0.00,,---,0.00,VWS V14.01,2013-05-19 23:15:00,
2013-05-19 18:20:00,86.2,70.2,29.83,SE,127,0.0,0.0,59,0.00,,---,0.00,VWS V14.01,2013-05-19 23:20:00,
2013-05-19 18:25:00,86.0,70.0,29.83,SE,146,0.0,0.0,59,0.00,,---,0.00,VWS V14.01,2013-05-19 23:25:00,
2013-05-19 18:30:00,85.9,69.4,29.83,SE,134,0.0,0.0,58,0.00,,---,0.00,VWS V14.01,2013-05-19 23:30:00,
2013-05-19 18:35:00,85.7,69.7,29.83,SSE,159,0.0,0.0,59,0.00,,---,0.00,VWS V14.01,2013-05-19 23:35:00,
2013-05-19 18:40:00,85.5,70.0,29.83,ESE,119,0.0,0.0,60,0.00,,---,0.00,VWS V14.01,2013-05-19 23:40:00,
2013-05-19 18:45:00,85.3,70.3,29.83,ESE,120,0.0,0.0,61,0.00,,---,0.00,VWS V14.01,2013-05-19 23:45:00,
2013-05-19 18:50:00,85.1,70.6,29.83,SSE,163,0.0,0.0,62,0.00,,---,0.00,VWS V14.01,2013-05-19 23:50:00,
2013-05-19 18:55:00,85.0,70.5,29.83,SE,130,0.0,0.0,62,0.00,,---,0.00,VWS V14.01,2013-05-19 23:55:00,
2013-05-19 19:00:00,84.8,70.8,29.83,ESE,121,0.0,0.0,63,0.00,,---,0.00,VWS V14.01,2013-05-20 00:00:00,
2013-05-19 19:05:00,84.4,70.4,29.83,SE,144,0.0,0.0,63,0.00,,---,0.00,VWS V14.01,2013-05-20 00:05:00,
2013-05-19 19:10:00,84.2,70.2,29.83,SE,144,0.0,0.0,63,0.00,,---,0.00,VWS V14.01,2013-05-20 00:10:00,
2013-05-19 19:15:00,84.0,70.5,29.83,SE,126,0.0,0.0,64,0.00,,---,0.00,VWS V14.01,2013-05-20 00:15:00,
2013-05-19 19:20:00,83.8,70.3,29.83,SE,130,0.0,0.0,64,0.00,,---,0.00,VWS V14.01,2013-05-20 00:20:00,
2013-05-19 19:25:00,83.6,70.1,29.83,SSE,148,0.0,0.0,64,0.00,,---,0.00,VWS V14.01,2013-05-20 00:25:00,
2013-05-19 19:30:00,83.3,70.3,29.83,SSE,167,0.0,0.0,65,0.00,,---,0.00,VWS V14.01,2013-05-20 00:30:00,
2013-05-19 19:35:00,82.9,69.9,29.83,SE,132,0.0,0.0,65,0.00,,---,0.00,VWS V14.01,2013-05-20 00:35:00,
2013-05-19 19:40:00,82.7,69.8,29.83,ESE,119,0.0,0.0,65,0.00,,---,0.00,VWS V14.01,2013-05-20 00:40:00,
2013-05-19 19:45:00,82.5,70.0,29.83,SE,124,0.0,0.0,66,0.00,,---,0.00,VWS V14.01,2013-05-20 00:45:00,
2013-05-19 19:50:00,82.3,69.8,29.83,SSE,156,0.0,0.0,66,0.00,,---,0.00,VWS V14.01,2013-05-20 00:50:00,
2013-05-19 19:55:00,82.0,69.5,29.84,SSE,151,0.0,0.0,66,0.00,,---,0.00,VWS V14.01,2013-05-20 00:55:00,
2013-05-19 20:00:00,81.9,69.9,29.84,SE,136,0.0,0.0,67,0.00,,---,0.00,VWS V14.01,2013-05-20 01:00:00,
2013-05-19 20:05:00,81.6,69.6,29.84,SSE,158,0.0,0.0,67,0.00,,---,0.00,VWS V14.01,2013-05-20 01:05:00,
2013-05-19 20:10:00,81.5,69.9,29.84,SE,129,0.0,0.0,68,0.00,,---,0.00,VWS V14.01,2013-05-20 01:10:00,
2013-05-19 20:15:00,81.2,69.6,29.84,SE,144,0.0,0.0,68,0.00,,---,0.00,VWS V14.01,2013-05-20 01:15:00,
2013-05-19 20:20:00,81.1,70.0,29.84,ESE,121,0.0,0.0,69,0.00,,---,0.00,VWS V14.01,2013-05-20 01:20:00,
2013-05-19 20:25:00,80.9,69.8,29.85,SE,140,0.0,0.0,69,0.00,,---,0.00,VWS V14.01,2013-05-20 01:25:00,
2013-05-19 20:30:00,80.7,69.6,29.85,ESE,117,0.0,0.0,69,0.00,,---,0.00,VWS V14.01,2013-05-20 01:30:00,
2013-05-19 20:35:00,80.5,69.8,29.85,ESE,115,0.0,0.0,70,0.00,,---,0.00,VWS V14.01,2013-05-20 01:35:00,
2013-05-19 20:40:00,80.3,69.6,29.85,SE,142,0.0,0.0,70,0.00,,---,0.00,VWS V14.01,2013-05-20 01:40:00,
2013-05-19 20:45:00,80.2,69.5,29.85,ESE,105,0.0,0.0,70,0.00,,---,0.00,VWS V14.01,2013-05-20 01:45:00,
2013-05-19 20:50:00,80.1,69.9,29.85,SSE,157,0.0,0.0,71,0.00,,---,0.00,VWS V14.01,2013-05-20 01:50:00,
2013-05-19 20:55:00,80.0,69.8,29.86,SSE,150,0.0,0.0,71,0.00,,---,0.00,VWS V14.01,2013-05-20 01:55:00,
2013-05-19 21:00:00,79.8,69.6,29.86,SSE,154,0.0,0.0,71,0.00,,---,0.00,VWS V14.01,2013-05-20 02:00:00,
2013-05-19 21:05:00,79.6,69.8,29.86,South,169,0.0,0.0,72,0.00,,---,0.00,VWS V14.01,2013-05-20 02:05:00,
2013-05-19 21:10:00,79.4,69.6,29.86,SSE,157,0.0,0.0,72,0.00,,---,0.00,VWS V14.01,2013-05-20 02:10:00,
2013-05-19 21:15:00,79.3,69.5,29.86,SSE,150,0.0,0.0,72,0.00,,---,0.00,VWS V14.01,2013-05-20 02:15:00,
2013-05-19 21:20:00,79.1,69.7,29.86,East,96,0.0,0.0,73,0.00,,---,0.00,VWS V14.01,2013-05-20 02:20:00,
2013-05-19 21:25:00,78.9,69.9,29.86,ESE,123,0.0,0.0,74,0.00,,---,0.00,VWS V14.01,2013-05-20 02:25:00,
2013-05-19 21:30:00,78.7,69.7,29.86,SSE,150,0.0,0.0,74,0.00,,---,0.00,VWS V14.01,2013-05-20 02:30:00,
2013-05-19 21:35:00,78.7,70.1,29.86,ESE,122,0.0,0.0,75,0.00,,---,0.00,VWS V14.01,2013-05-20 02:35:00,
2013-05-19 21:40:00,78.5,69.9,29.87,ESE,119,0.0,0.0,75,0.00,,---,0.00,VWS V14.01,2013-05-20 02:40:00,
2013-05-19 21:45:00,78.4,70.2,29.87,ESE,109,0.0,0.0,76,0.00,,---,0.00,VWS V14.01,2013-05-20 02:45:00,
2013-05-19 21:50:00,78.2,70.0,29.87,ESE,103,0.0,0.0,76,0.00,,---,0.00,VWS V14.01,2013-05-20 02:50:00,
2013-05-19 21:55:00,78.1,69.9,29.86,SSE,152,0.0,0.0,76,0.00,,---,0.00,VWS V14.01,2013-05-20 02:55:00,
2013-05-19 22:00:00,78.0,70.2,29.87,SE,124,0.0,0.0,77,0.00,,---,0.00,VWS V14.01,2013-05-20 03:00:00,
2013-05-19 22:05:00,77.9,70.1,29.87,ESE,111,0.0,0.0,77,0.00,,---,0.00,VWS V14.01,2013-05-20 03:05:00,
2013-05-19 22:10:00,77.9,70.1,29.86,SE,139,0.0,0.0,77,0.00,,---,0.00,VWS V14.01,2013-05-20 03:10:00,
2013-05-19 22:15:00,77.9,70.1,29.86,ESE,110,0.0,0.0,77,0.00,,---,0.00,VWS V14.01,2013-05-20 03:15:00,
2013-05-19 22:20:00,77.7,69.9,29.87,East,100,0.0,0.0,77,0.00,,---,0.00,VWS V14.01,2013-05-20 03:20:00,
2013-05-19 22:25:00,77.6,69.8,29.87,SE,125,0.0,0.0,77,0.00,,---,0.00,VWS V14.01,2013-05-20 03:25:00,
2013-05-19 22:30:00,77.6,70.2,29.87,SSE,150,0.0,0.0,78,0.00,,---,0.00,VWS V14.01,2013-05-20 03:30:00,
2013-05-19 22:35:00,77.6,70.2,29.86,SE,140,0.0,0.0,78,0.00,,---,0.00,VWS V14.01,2013-05-20 03:35:00,
2013-05-19 22:40:00,77.4,70.0,29.87,SE,142,0.0,0.0,78,0.00,,---,0.00,VWS V14.01,2013-05-20 03:40:00,
2013-05-19 22:45:00,77.3,69.9,29.87,SE,136,0.0,0.0,78,0.00,,---,0.00,VWS V14.01,2013-05-20 03:45:00,
2013-05-19 22:50:00,77.2,69.8,29.87,ESE,123,0.0,0.0,78,0.00,,---,0.00,VWS V14.01,2013-05-20 03:50:00,
2013-05-19 22:55:00,77.1,69.7,29.87,SE,134,0.0,0.0,78,0.00,,---,0.00,VWS V14.01,2013-05-20 03:55:00,
2013-05-19 23:00:00,77.0,70.0,29.87,SE,144,0.0,0.0,79,0.00,,---,0.00,VWS V14.01,2013-05-20 04:00:00,
2013-05-19 23:01:00,77.0,70.0,29.87,ESE,111,0.0,0.0,79,0.00,,---,0.00,VWS V14.01,2013-05-20 04:01:00,
2013-05-19 23:06:00,77.0,70.0,29.87,SSE,150,0.0,0.0,79,0.00,,---,0.00,VWS V14.01,2013-05-20 04:06:00,
2013-05-19 23:11:00,76.9,69.9,29.87,SE,144,0.0,0.0,79,0.00,,---,0.00,VWS V14.01,2013-05-20 04:11:00,
2013-05-19 23:16:00,76.9,69.9,29.87,SE,137,0.0,0.0,79,0.00,,---,0.00,VWS V14.01,2013-05-20 04:16:00,
2013-05-19 23:21:00,76.9,70.3,29.88,SSE,167,0.0,0.0,80,0.00,,---,0.00,VWS V14.01,2013-05-20 04:21:00,
2013-05-19 23:26:00,76.8,70.2,29.88,ESE,117,0.0,0.0,80,0.00,,---,0.00,VWS V14.01,2013-05-20 04:26:00,
2013-05-19 23:31:00,76.7,70.1,29.88,SSE,167,0.0,0.0,80,0.00,,---,0.00,VWS V14.01,2013-05-20 04:31:00,
2013-05-19 23:36:00,76.6,70.0,29.88,SE,134,0.0,0.0,80,0.00,,---,0.00,VWS V14.01,2013-05-20 04:36:00,
2013-05-19 23:41:00,76.5,70.2,29.88,ESE,103,0.0,0.0,81,0.00,,---,0.00,VWS V14.01,2013-05-20 04:41:00,
2013-05-19 23:46:00,76.4,70.1,29.88,SE,132,0.0,0.0,81,0.00,,---,0.00,VWS V14.01,2013-05-20 04:46:00,
2013-05-19 23:51:00,76.3,70.1,29.88,ESE,115,0.0,0.0,81,0.00,,---,0.00,VWS V14.01,2013-05-20 04:51:00,
2013-05-19 23:56:00,76.2,70.3,29.88,SE,144,0.0,0.0,82,0.00,,---,0.00,VWS V14.01,2013-05-20 04:56:00,